Vertical_Velocity
3 -2 -3 -4 5 1 1 1 3 0 -0 1 -3 -0 0 1 -0 2 3 3 3 1 -0 1 3 6 7 6 5 21 18 4 15 10 3 4 -1 5 3 3 2 2 -2 -7
1 -1 3 4 1 1 -2 1 -2 1 -1 2 -0 -3 -4 1 3 2 -0 4 2 3 2 4 6 8 6 11 10 1 10 5 1 2 2 4 2 -2 -4 -3 -4 -5 -2 -1
-1 -3 1 5 -1 -4 -1 0 0 1 2 0 -3 4 3 1 2 1 0 1 2 1 2 0 1 -0 9 9 4 2 1 -2 0 1 0 -2 -3 -2 -1 1 3 2 2 2
0 -2 1 -2 2 -3 2 3 5 5 3 -2 2 -3 -3 -1 2 0 1 1 3 4 4 0 4 1 -2 -0 3 -2 -4 2 1 -3 -1 -1 0 -1 -1 -0 0 0 -0 -2
1 2 3 0 -3 -2 -2 2 2 -0 -3 -1 -0 -0 -8 -0 -4 -1 4 3 2 1 0 0 -1 5 -2 -2 2 4 0 -0 6 6 4 8 6 2 -0 -1 -3 -6 -7 -6
1 -1 -1 1 1 -0 -1 -0 -1 -2 -0 -2 -1 0 -4 -1 3 4 2 0 -0 1 -0 -0 -2 5 3 -4 4 3 -5 -6 -1 -1 -3 -2 -5 -3 -3 -2 -3 -4 -4 -2
1 -1 -1 1 3 2 -1 0 -2 -3 -2 -6 0 1 -3 -0 2 -0 2 2 3 3 -1 0 -0 -6 -5 -16 -5 4 -3 -3 -3 -2 -2 -7 -4 -3 -2 -1 0 1 1 -0
-1 1 -2 -2 -1 -1 0 1 -1 -3 -2 -3 -1 -2 -5 -3 -1 0 4 1 2 2 -2 -5 -7 -0 -0 2 2 3 -5 -3 -1 -3 -2 -0 2 2 1 1 0 1 1 -0
-3 -1 -1 0 2 2 -1 -1 1 -3 -0 -1 -0 -2 -5 -4 -5 -2 -1 3 -2 -4 -5 -3 -3 -1 -0 -1 3 -4 -4 -2 -2 -1 -1 1 2 1 1 1 -1 -2 -3 -1
-1 -2 1 0 -1 -0 1 0 -3 -1 -3 -1 -1 -3 -6 -4 -3 -4 -5 -3 -7 -4 1 2 2 1 1 -0 -0 1 0 4 3 0 2 2 -1 -2 -2 -2 1 -0 -1 -2
2 -0 -0 -0 -1 -2 1 -1 -1 -1 -1 -5 -2 -6 -3 -3 -2 -3 -0 0 -0 1 3 0 0 1 -0 2 4 4 2 -3 -3 1 1 2 1 1 1 -1 -3 -5 -7 -6
-0 -1 -1 -2 -1 -0 -0 -1 -0 -1 -2 -1 -0 -10 -2 -1 -1 2 0 1 3 2 1 0 -1 -1 -1 -2 2 0 -0 -1 0 3 0 1 0 -1 -3 -6 -5 -1 -2 -1
-2 1 -2 0 0 1 -0 -0 0 -1 -1 -3 -4 -6 -2 -3 -0 2 2 1 1 1 1 1 4 2 -0 5 3 2 -3 0 -1 0 -1 -1 -3 -2 1 2 2 2 2 3
3 0 -3 -12 -2 -1 -5 -1 -0 0 -1 -1 -9 -2 -2 1 -1 -1 -0 1 3 3 3 3 2 2 4 -1 -1 -1 -2 0 -1 -0 2 2 2 1 -1 -1 -1 -1 2 1
1 -1 0 0 -0 -1 -2 -1 -1 -2 -0 -2 -1 -6 4 1 1 4 2 1 2 2 3 2 1 1 -0 -1 -0 1 3 2 2 2 1 1 -2 -4 -4 -4 -1 -1 -4 -2
0 -2 0 1 1 -0 -3 -1 -1 -1 0 -5 -2 -11 -1 -1 0 -1 -0 -0 1 1 1 3 5 -1 1 2 1 0 -0 -1 -1 0 -3 -3 -2 -3 -3 -2 -4 -4 -2 -1
1 -0 0 -3 1 2 -4 -7 -1 2 -2 1 -7 7 -3 -2 -1 -1 0 2 1 1 1 -0 -0 2 -0 1 0 -0 1 0 -1 -3 -3 -4 -4 -1 -3 -4 -1 -0 -2 -2
-1 1 2 -1 0 -5 -3 -2 -2 -2 1 -2 -2 -0 -2 -2 -1 -1 0 2 2 1 2 2 2 -0 -0 -0 -0 -0 -2 -2 -3 -3 -3 -2 -3 -3 -1 0 -1 0 -0 -2
1 1 -2 -0 -0 -6 -4 -6 -2 2 -4 2 1 2 -0 -2 -0 -2 0 2 -0 4 3 2 -1 -1 -1 0 -0 -2 -2 -2 -3 -2 -3 -3 -4 -2 -1 -1 -2 -0 -0 -3
0 0 1 0 -1 -4 -4 -4 -1 2 -19 -2 3 2 -1 -0 -3 6 -3 2 1 -1 -3 -1 -1 -2 -1 -0 -1 -1 0 -2 -2 -1 -2 -3 -3 -2 -2 -4 0 1 -0 -1
-1 -0 -3 2 -1 -6 -3 -0 3 1 -3 -5 -1 -2 -4 -4 -2 -2 -2 -1 2 -4 -1 -1 -1 0 0 -1 -1 -2 -1 -2 -2 -2 -1 -2 -2 -3 -0 -2 -2 1 0 -1
2 -0 -2 1 -0 -13 0 1 -2 5 -0 -2 0 -2 -3 -2 -1 -0 -0 -1 -1 -1 0 1 1 -2 -1 -0 -1 -2 -3 -1 -3 -2 -3 -3 -4 -1 -1 -0 -1 -1 -0 0
-6 -0 -1 -2 -2 1 1 -1 -0 -1 -1 -1 -3 -3 -2 -1 -3 -0 1 6 -2 1 1 -0 1 1 -2 -3 -3 -0 -1 -2 -1 0 -1 -3 -1 -2 -2 -0 -1 -1 0 0
-4 4 -1 7 -4 4 4 1 2 3 2 -0 1 2 3 2 1 1 9 1 3 1 -0 1 0 -2 -1 -2 -2 -2 -3 -2 -1 -3 -1 -3 -2 -1 -1 -1 0 -1 -0 -0
-5 2 3 -6 -4 5 1 3 3 1 2 3 4 4 2 1 2 13 -3 1 1 -0 -2 -1 -2 -1 -2 -1 -0 -1 -0 -2 -2 -2 -1 -1 -2 -2 -1 -1 0 -1 0 -0
4 6 1 -8 4 1 1 -2 0 2 2 2 2 2 -1 -1 7 2 2 -1 -3 -3 -1 -0 -1 -3 -1 -2 -2 -1 -3 -3 -2 -1 -2 -2 -1 -1 -1 -1 0 -2 0 -1
Height
3132 3135 3135 3137 3138 3139 3139 3140 3140 3142 3146 3148 3149 3150 3150 3151 3154 3155 3156 3156 3157 3158 3159 3160 3161 3161 3161 3160 3159 3159 3159 3160 3157 3157 3154 3153 3153 3152 3150 3148 3146 3143 3141 3138
3134 3134 3136 3136 3137 3138 3138 3139 3139 3141 3144 3147 3147 3149 3149 3150 3152 3153 3154 3155 3155 3155 3157 3158 3158 3159 3159 3159 3158 3157 3158 3158 3157 3154 3152 3152 3151 3149 3147 3145 3143 3140 3136 3131
3130 3133 3134 3136 3136 3137 3138 3140 3140 3142 3143 3145 3147 3149 3148 3149 3150 3150 3151 3152 3153 3153 3154 3155 3157 3158 3158 3158 3156 3156 3156 3155 3154 3152 3151 3149 3147 3145 3143 3141 3138 3133 3129 3124
3132 3133 3134 3135 3137 3139 3140 3141 3142 3142 3143 3145 3146 3146 3145 3147 3147 3147 3149 3150 3150 3152 3152 3153 3155 3155 3155 3154 3154 3154 3153 3153 3152 3150 3148 3146 3142 3139 3135 3131 3126 3121 3117 3112
3132 3133 3135 3135 3137 3138 3140 3139 3140 3141 3142 3144 3145 3146 3142 3143 3144 3145 3146 3147 3149 3151 3151 3152 3152 3152 3152 3152 3151 3151 3151 3150 3148 3146 3143 3140 3135 3131 3126 3121 3116 3110 3105 3099
3130 3132 3134 3135 3136 3137 3138 3139 3140 3141 3142 3142 3142 3143 3139 3139 3140 3142 3144 3146 3148 3149 3149 3149 3149 3150 3149 3149 3149 3147 3145 3146 3143 3139 3136 3134 3130 3125 3119 3112 3106 3100 3095 3089
3130 3132 3134 3135 3136 3137 3138 3138 3140 3143 3144 3142 3141 3141 3137 3137 3139 3142 3145 3146 3147 3147 3148 3148 3146 3145 3146 3145 3145 3145 3142 3138 3137 3133 3130 3127 3121 3115 3109 3103 3097 3092 3087 3082
3130 3133 3133 3134 3135 3137 3137 3138 3138 3140 3143 3139 3139 3138 3136 3136 3137 3140 3143 3144 3146 3146 3146 3146 3145 3144 3141 3141 3140 3139 3135 3133 3130 3127 3122 3117 3111 3106 3100 3095 3090 3083 3078 3073
3129 3132 3132 3133 3134 3137 3136 3137 3138 3137 3139 3139 3138 3137 3135 3134 3135 3138 3140 3142 3143 3144 3144 3143 3142 3141 3139 3138 3135 3133 3131 3128 3124 3120 3115 3109 3103 3098 3093 3087 3082 3076 3069 3064
3128 3130 3132 3132 3133 3135 3135 3137 3137 3137 3141 3139 3136 3134 3132 3132 3134 3135 3137 3139 3140 3140 3139 3139 3138 3136 3134 3132 3129 3128 3124 3121 3116 3112 3107 3102 3096 3091 3085 3078 3072 3066 3060 3054
3127 3129 3132 3132 3133 3133 3135 3135 3135 3136 3136 3138 3140 3131 3128 3129 3131 3132 3134 3134 3135 3135 3135 3135 3133 3131 3129 3127 3125 3122 3118 3115 3111 3106 3101 3095 3088 3080 3073 3066 3061 3055 3048 3042
3125 3127 3128 3131 3131 3132 3132 3132 3133 3133 3135 3135 3135 3129 3126 3127 3128 3130 3130 3130 3131 3131 3130 3129 3127 3126 3124 3122 3119 3115 3112 3109 3103 3098 3092 3085 3078 3071 3064 3057 3050 3044 3038 3032
3124 3125 3127 3130 3132 3130 3129 3130 3130 3130 3131 3131 3132 3126 3125 3126 3126 3127 3128 3127 3126 3125 3124 3122 3121 3120 3118 3115 3111 3108 3103 3099 3094 3088 3082 3076 3068 3061 3055 3049 3043 3036 3029 3023
3121 3122 3123 3124 3124 3125 3126 3126 3127 3127 3128 3126 3123 3122 3123 3123 3123 3123 3122 3122 3122 3121 3120 3118 3116 3114 3111 3107 3104 3099 3095 3090 3084 3078 3072 3066 3060 3054 3048 3041 3034 3027 3021 3014
3119 3120 3121 3121 3121 3122 3122 3123 3123 3123 3123 3122 3119 3118 3119 3119 3119 3119 3119 3118 3117 3116 3115 3113 3111 3108 3104 3100 3096 3091 3086 3081 3076 3071 3066 3059 3052 3045 3039 3032 3025 3018 3012 3006
3116 3117 3118 3118 3119 3119 3119 3119 3119 3118 3117 3115 3115 3114 3115 3115 3114 3113 3112 3112 3111 3111 3110 3108 3106 3102 3098 3093 3089 3084 3079 3075 3070 3064 3057 3050 3044 3036 3028 3021 3015 3009 3002 2997
3114 3115 3116 3116 3116 3116 3115 3112 3113 3112 3110 3111 3110 3112 3110 3109 3109 3108 3107 3107 3106 3105 3104 3102 3098 3094 3089 3085 3081 3076 3072 3067 3062 3055 3049 3042 3034 3027 3020 3013 3007 3001 2996 2991
3111 3113 3114 3113 3113 3114 3106 3106 3107 3105 3105 3105 3105 3105 3105 3104 3103 3103 3102 3102 3101 3100 3098 3094 3090 3086 3082 3078 3074 3070 3065 3059 3053 3047 3040 3033 3026 3019 3013 3006 3000 2994 2989 2986
3109 3110 3111 3111 3108 3104 3103 3102 3102 3100 3102 3101 3101 3101 3100 3099 3098 3099 3098 3097 3096 3094 3091 3087 3083 3079 3075 3071 3067 3063 3057 3051 3044 3037 3031 3025 3019 3012 3006 2999 2993 2988 2983 2979
3105 3106 3108 3107 3106 3103 3098 3098 3098 3097 3094 3096 3097 3097 3097 3095 3093 3096 3093 3092 3090 3087 3083 3079 3075 3071 3068 3064 3060 3055 3048 3042 3036 3031 3025 3019 3012 3005 2998 2991 2986 2981 2976 2972
3103 3102 3102 3101 3100 3095 3095 3095 3095 3096 3097 3093 3093 3093 3092 3090 3090 3088 3087 3085 3081 3078 3074 3071 3068 3065 3062 3057 3052 3047 3040 3035 3029 3023 3018 3011 3004 2997 2989 2983 2978 2974 2969 2965
3100 3100 3098 3096 3096 3093 3090 3091 3093 3092 3089 3089 3089 3087 3085 3083 3081 3080 3078 3075 3072 3069 3067 3064 3062 3059 3055 3049 3044 3039 3033 3027 3021 3015 3009 3003 2996 2989 2982 2976 2971 2967 2963 2960
3096 3095 3094 3094 3091 3089 3087 3088 3087 3087 3086 3084 3082 3080 3078 3077 3075 3073 3070 3067 3064 3062 3060 3058 3056 3052 3048 3042 3036 3030 3024 3018 3012 3007 3001 2994 2988 2981 2975 2970 2965 2961 2958 2954
3090 3089 3086 3087 3087 3086 3084 3083 3082 3080 3079 3077 3075 3074 3072 3070 3068 3065 3061 3059 3057 3055 3054 3053 3049 3045 3040 3034 3028 3022 3016 3009 3004 2998 2993 2986 2980 2974 2969 2964 2959 2955 2953 2950
3087 3084 3082 3081 3082 3079 3079 3077 3075 3073 3072 3070 3068 3067 3065 3063 3060 3056 3054 3052 3051 3050 3049 3046 3041 3036 3031 3025 3019 3013 3007 3002 2996 2990 2984 2979 2973 2968 2963 2958 2954 2951 2949 2946
3081 3080 3078 3074 3075 3072 3071 3069 3068 3066 3064 3062 3061 3059 3057 3054 3051 3049 3047 3046 3045 3044 3042 3038 3033 3027 3022 3016 3011 3005 2999 2994 2988 2983 2977 2972 2967 2962 2957 2953 2950 2947 2944 2942